Time,TemperatureF,DewpointF,PressureIn,WindDirection,WindDirectionDegrees,WindSpeedMPH,WindSpeedGustMPH,Humidity,HourlyPrecipIn,Conditions,Clouds,dailyrainin,SoftwareType,DateUTC
2013-07-29 00:02:00,55.0,55.0,-100.00,NW,310,0.0,1.0,98,0.00,,,-99.99,,2013-07-29 04:02:00,
2013-07-29 00:12:00,55.0,55.0,-100.00,WNW,290,0.0,1.0,98,0.00,,,-99.99,,2013-07-29 04:12:00,
2013-07-29 00:22:00,56.0,55.0,-100.00,SW,235,1.0,1.0,99,0.00,,,-99.99,,2013-07-29 04:22:00,
2013-07-29 00:32:00,56.0,55.0,-100.00,SW,235,1.0,1.0,99,0.00,,,-99.99,,2013-07-29 04:32:00,
2013-07-29 00:43:00,55.0,55.0,-100.00,WSW,240,0.0,2.0,99,0.00,,,-99.99,,2013-07-29 04:43:00,
2013-07-29 00:53:00,55.0,55.0,-100.00,WSW,255,1.0,2.0,99,0.00,,,-99.99,,2013-07-29 04:53:00,
2013-07-29 01:02:00,55.0,55.0,-100.00,WSW,255,1.0,2.0,99,0.00,,,-99.99,,2013-07-29 05:02:00,
2013-07-29 01:12:00,55.0,55.0,-100.00,SW,215,2.0,2.0,99,0.00,,,-99.99,,2013-07-29 05:12:00,
2013-07-29 01:22:00,55.0,55.0,-100.00,SW,215,1.0,3.0,99,0.00,,,-99.99,,2013-07-29 05:22:00,
2013-07-29 01:32:00,55.0,55.0,-100.00,SSW,205,1.0,2.0,99,0.00,,,-99.99,,2013-07-29 05:32:00,
2013-07-29 01:43:00,55.0,55.0,-100.00,SSW,205,1.0,2.0,99,0.00,,,-99.99,,2013-07-29 05:43:00,
2013-07-29 01:53:00,55.0,55.0,-100.00,SW,235,0.0,2.0,99,0.00,,,-99.99,,2013-07-29 05:53:00,
2013-07-29 02:02:00,54.0,54.0,-100.00,WNW,295,1.0,1.0,99,0.00,,,-99.99,,2013-07-29 06:02:00,
2013-07-29 02:12:00,53.0,53.0,-100.00,West,265,0.0,1.0,99,0.00,,,-99.99,,2013-07-29 06:12:00,
2013-07-29 02:22:00,53.0,53.0,-100.00,SSW,195,0.0,1.0,99,0.00,,,-99.99,,2013-07-29 06:22:00,
2013-07-29 02:32:00,53.0,53.0,-100.00,SW,235,0.0,0.0,99,0.00,,,-99.99,,2013-07-29 06:32:00,
2013-07-29 02:43:00,53.0,53.0,-100.00,SW,235,0.0,0.0,99,0.00,,,-99.99,,2013-07-29 06:43:00,
2013-07-29 02:52:00,52.0,52.0,-100.00,West,280,0.0,1.0,99,0.00,,,-99.99,,2013-07-29 06:52:00,
2013-07-29 03:02:00,53.0,53.0,-100.00,South,175,1.0,2.0,99,0.00,,,-99.99,,2013-07-29 07:02:00,
2013-07-29 03:12:00,53.0,53.0,-100.00,SW,225,0.0,1.0,99,0.00,,,-99.99,,2013-07-29 07:12:00,
2013-07-29 03:23:00,52.0,52.0,-100.00,West,265,0.0,2.0,99,0.00,,,-99.99,,2013-07-29 07:23:00,
2013-07-29 03:33:00,51.0,51.0,-100.00,West,280,0.0,0.0,99,0.00,,,-99.99,,2013-07-29 07:33:00,
2013-07-29 03:43:00,51.0,51.0,-100.00,West,275,0.0,1.0,99,0.00,,,-99.99,,2013-07-29 07:43:00,
2013-07-29 03:53:00,51.0,51.0,-100.00,West,275,0.0,0.0,99,0.00,,,-99.99,,2013-07-29 07:53:00,
2013-07-29 04:02:00,51.0,51.0,-100.00,West,280,0.0,1.0,99,0.00,,,-99.99,,2013-07-29 08:02:00,
2013-07-29 04:12:00,51.0,51.0,-100.00,WSW,250,0.0,1.0,99,0.00,,,-99.99,,2013-07-29 08:12:00,
2013-07-29 04:22:00,51.0,51.0,-100.00,West,280,0.0,1.0,99,0.00,,,-99.99,,2013-07-29 08:22:00,
2013-07-29 04:33:00,51.0,51.0,-100.00,SSW,205,0.0,3.0,99,0.00,,,-99.99,,2013-07-29 08:33:00,
2013-07-29 04:42:00,52.0,52.0,-100.00,SSW,195,0.0,2.0,99,0.00,,,-99.99,,2013-07-29 08:42:00,
2013-07-29 04:52:00,52.0,52.0,-100.00,SW,235,1.0,4.0,99,0.00,,,-99.99,,2013-07-29 08:52:00,
2013-07-29 05:02:00,53.0,53.0,-100.00,SW,220,4.0,6.0,99,0.00,,,-99.99,,2013-07-29 09:02:00,
2013-07-29 05:12:00,53.0,53.0,-100.00,SW,220,4.0,6.0,99,0.00,,,-99.99,,2013-07-29 09:12:00,
2013-07-29 05:22:00,53.0,53.0,-100.00,SW,220,4.0,6.0,99,0.00,,,-99.99,,2013-07-29 09:22:00,
2013-07-29 05:33:00,54.0,54.0,-100.00,SW,225,4.0,7.0,99,0.00,,,-99.99,,2013-07-29 09:33:00,
2013-07-29 05:43:00,54.0,54.0,-100.00,SW,215,4.0,7.0,99,0.00,,,-99.99,,2013-07-29 09:43:00,
2013-07-29 05:53:00,54.0,54.0,-100.00,WSW,240,3.0,7.0,98,0.00,,,-99.99,,2013-07-29 09:53:00,
2013-07-29 06:04:00,54.0,54.0,-100.00,WSW,240,3.0,6.0,97,0.00,,,-99.99,,2013-07-29 10:04:00,
2013-07-29 06:14:00,55.0,54.0,-100.00,SSW,210,4.0,6.0,96,0.00,,,-99.99,,2013-07-29 10:14:00,
2013-07-29 06:25:00,55.0,54.0,-100.00,SW,230,2.0,6.0,96,0.00,,,-99.99,,2013-07-29 10:25:00,
2013-07-29 06:37:00,55.0,54.0,-100.00,WSW,240,2.0,6.0,94,0.00,,,-99.99,,2013-07-29 10:37:00,
2013-07-29 06:48:00,55.0,54.0,-100.00,WSW,240,3.0,5.0,94,0.00,,,-99.99,,2013-07-29 10:48:00,
2013-07-29 07:05:00,55.0,53.0,-100.00,WSW,240,3.0,6.0,94,0.00,,,-99.99,,2013-07-29 11:05:00,
2013-07-29 07:15:00,55.0,53.0,-100.00,WSW,255,2.0,4.0,95,0.00,,,-99.99,,2013-07-29 11:15:00,
2013-07-29 07:24:00,55.0,53.0,-100.00,SW,235,4.0,6.0,95,0.00,,,-99.99,,2013-07-29 11:24:00,
2013-07-29 07:37:00,55.0,54.0,-100.00,WSW,245,3.0,5.0,95,0.00,,,-99.99,,2013-07-29 11:37:00,
2013-07-29 07:45:00,55.0,54.0,-100.00,SW,215,3.0,5.0,95,0.00,,,-99.99,,2013-07-29 11:45:00,
2013-07-29 08:09:00,56.0,55.0,-100.00,WSW,240,2.0,4.0,95,0.00,,,-99.99,,2013-07-29 12:09:00,
2013-07-29 08:16:00,56.0,55.0,-100.00,SW,235,3.0,6.0,94,0.00,,,-99.99,,2013-07-29 12:16:00,
2013-07-29 08:27:00,57.0,55.0,-100.00,SW,225,3.0,6.0,94,0.00,,,-99.99,,2013-07-29 12:27:00,
2013-07-29 08:35:00,57.0,56.0,-100.00,WSW,240,3.0,7.0,94,0.00,,,-99.99,,2013-07-29 12:35:00,
2013-07-29 08:46:00,57.0,56.0,-100.00,WSW,240,3.0,7.0,94,0.00,,,-99.99,,2013-07-29 12:46:00,
2013-07-29 08:55:00,58.0,56.0,-100.00,SW,230,4.0,6.0,93,0.00,,,-99.99,,2013-07-29 12:55:00,
2013-07-29 09:03:00,58.0,56.0,-100.00,SW,225,4.0,8.0,93,0.00,,,-99.99,,2013-07-29 13:03:00,
2013-07-29 09:17:00,58.0,56.0,-100.00,SW,235,4.0,6.0,92,0.00,,,-99.99,,2013-07-29 13:17:00,
2013-07-29 09:28:00,59.0,56.0,-100.00,SW,220,4.0,7.0,91,0.00,,,-99.99,,2013-07-29 13:28:00,
2013-07-29 09:45:00,60.0,57.0,-100.00,SW,230,4.0,7.0,90,0.00,,,-99.99,,2013-07-29 13:45:00,
2013-07-29 09:54:00,60.0,57.0,-100.00,SW,230,4.0,7.0,88,0.00,,,-99.99,,2013-07-29 13:54:00,
2013-07-29 10:07:00,62.0,58.0,-100.00,WSW,245,5.0,8.0,87,0.00,,,-99.99,,2013-07-29 14:07:00,
2013-07-29 10:13:00,62.0,58.0,-100.00,WSW,245,5.0,8.0,87,0.00,,,-99.99,,2013-07-29 14:13:00,
2013-07-29 10:35:00,63.0,58.0,-100.00,WSW,250,7.0,12.0,82,0.00,,,-99.99,,2013-07-29 14:35:00,
2013-07-29 10:46:00,64.0,58.0,-100.00,West,260,6.0,9.0,82,0.00,,,-99.99,,2013-07-29 14:46:00,
2013-07-29 11:45:00,65.0,59.0,-100.00,West,265,7.0,13.0,80,0.00,,,-99.99,,2013-07-29 15:45:00,
2013-07-29 12:08:00,66.0,60.0,-100.00,WNW,290,7.0,11.0,79,0.00,,,-99.99,,2013-07-29 16:08:00,
2013-07-29 13:08:00,69.0,58.0,-100.00,West,280,10.0,17.0,70,0.00,,,-99.99,,2013-07-29 17:08:00,
2013-07-29 13:44:00,70.0,59.0,-100.00,West,275,9.0,14.0,67,0.00,,,-99.99,,2013-07-29 17:44:00,
2013-07-29 14:07:00,71.0,59.0,-100.00,WSW,245,7.0,16.0,64,0.00,,,-99.99,,2013-07-29 18:07:00,
2013-07-29 14:56:00,70.0,57.0,-100.00,West,270,9.0,13.0,63,0.00,,,-99.99,,2013-07-29 18:56:00,
2013-07-29 15:45:00,71.0,58.0,-100.00,West,270,9.0,17.0,65,0.00,,,-99.99,,2013-07-29 19:45:00,
2013-07-29 16:08:00,72.0,58.0,-100.00,WSW,240,7.0,12.0,62,0.00,,,-99.99,,2013-07-29 20:08:00,
2013-07-29 16:15:00,72.0,58.0,-100.00,West,260,9.0,13.0,62,0.00,,,-99.99,,2013-07-29 20:15:00,
2013-07-29 17:48:00,73.0,59.0,-100.00,West,265,4.0,12.0,61,0.00,,,-99.99,,2013-07-29 21:48:00,
2013-07-29 18:04:00,74.0,60.0,-100.00,NW,315,4.0,12.0,60,0.00,,,-99.99,,2013-07-29 22:04:00,
2013-07-29 18:17:00,73.0,59.0,-100.00,WNW,285,8.0,11.0,60,0.00,,,-99.99,,2013-07-29 22:17:00,
2013-07-29 18:37:00,73.0,58.0,-100.00,West,270,9.0,12.0,59,0.00,,,-99.99,,2013-07-29 22:37:00,
2013-07-29 18:44:00,72.0,59.0,-100.00,WNW,295,4.0,8.0,62,0.00,,,-99.99,,2013-07-29 22:44:00,
2013-07-29 18:55:00,74.0,58.0,-100.00,WNW,285,8.0,11.0,58,0.00,,,-99.99,,2013-07-29 22:55:00,
2013-07-29 19:06:00,73.0,58.0,-100.00,WNW,285,7.0,9.0,58,0.00,,,-99.99,,2013-07-29 23:06:00,
2013-07-29 19:35:00,73.0,58.0,-100.00,NW,325,4.0,9.0,59,0.00,,,-99.99,,2013-07-29 23:35:00,
2013-07-29 19:44:00,72.0,58.0,-100.00,NW,310,4.0,7.0,61,0.00,,,-99.99,,2013-07-29 23:44:00,
2013-07-29 20:08:00,71.0,58.0,-100.00,NW,305,2.0,6.0,65,0.00,,,-99.99,,2013-07-30 00:08:00,
2013-07-29 20:35:00,69.0,59.0,-100.00,NW,310,2.0,5.0,72,0.00,,,-99.99,,2013-07-30 00:35:00,
2013-07-29 20:48:00,69.0,60.0,-100.00,NW,305,2.0,4.0,73,0.00,,,-99.99,,2013-07-30 00:48:00,
2013-07-29 20:54:00,68.0,60.0,-100.00,NW,310,3.0,6.0,74,0.00,,,-99.99,,2013-07-30 00:54:00,
2013-07-29 22:06:00,63.0,60.0,-100.00,NW,305,1.0,3.0,90,0.00,,,-99.99,,2013-07-30 02:06:00,
2013-07-29 22:45:00,60.0,59.0,-100.00,SE,125,0.0,0.0,95,0.00,,,-99.99,,2013-07-30 02:45:00,
2013-07-29 23:19:00,58.0,58.0,-100.00,SE,125,0.0,0.0,97,0.00,,,-99.99,,2013-07-30 03:19:00,
2013-07-29 23:25:00,58.0,58.0,-100.00,SE,125,0.0,0.0,98,0.00,,,-99.99,,2013-07-30 03:25:00,
2013-07-29 23:35:00,58.0,57.0,-100.00,ESE,120,0.0,1.0,98,0.00,,,-99.99,,2013-07-30 03:35:00,
2013-07-29 23:45:00,58.0,57.0,-100.00,NNE,15,0.0,1.0,99,0.00,,,-99.99,,2013-07-30 03:45:00,